Content
SEND FEEDBACK

Daily
Averages
Monthly
Summary
United States of America

DRAPER, UTAH


Home > North America > United States > Utah
Elevation: 5059 feet     Latitude: 40 29N     Longitude: 111 54W

WEATHER
 
SELECT A DAY
Number of Records: 405,699;   Date Range: 1/1/95 - 12/18/14
 
SHARE

PRINT THIS DATA

[ ← Previous Day ]
WEATHER ALMANAC - FEBRUARY 14, 2013
[ Next Day → ]
[ °C ]   °F
Weather ElementAverageHighLow
Temperature28 °F37.4 °F (12:59 pm)23 °F (12:55 am)
Dewpoint23 °F28.4 °F (11:50 am)19.4 °F (12:55 am)
Humidity82.5 %100 % (2:55 am)60 % (6:52 pm)
Barometer30.35 in30.44 in (11:15 pm)30.27 in (3:15 am)
Wind Speed1.9 mph10.4 mph (7:47 pm)
Weather ElementAverage
Visibility7.4 mi
Wind DirectionENE (74.1 °)

Weather ElementTotal
Precipitation---
Heating Degree Days34.8 (Base 65)
Averaged from 41 records on February 14, 2013
WEATHER CONDITIONS BREAKOUT
WIND DIRECTION BREAKOUT
WEATHER BY HOUR - FEBRUARY 14, 2013
[ °C ]   °F
Local TimeTemperatureDewpointHumidityBarometerVisibilityWind DirectionWind SpeedGust SpeedPrecipitationEventsConditions
12:35 AM24.8 °F21.2 °F86 %30.28 in8.0 miCalmMostly Cloudy
12:55 AM23.0 °F19.4 °F86 %30.28 in8.0 miSW (230°)3.5 mphMostly Cloudy
1:15 AM23.0 °F21.2 °F93 %30.28 in7.0 miCalmMostly Cloudy
1:35 AM23.0 °F19.4 °F86 %30.28 in6.0 miCalmClear
1:55 AM24.8 °F21.2 °F86 %30.28 in7.0 miCalmClear
2:15 AM24.8 °F21.2 °F86 %30.29 in7.0 miCalmScattered Clouds
2:35 AM24.8 °F23.0 °F93 %30.28 in2.5 miNE (50°)3.5 mphOvercast
2:55 AM26.6 °F26.6 °F100 %30.28 in3.0 miCalmOvercast
3:15 AM26.6 °F26.6 °F100 %30.27 in4.0 miSouth (180°)4.6 mphOvercast
3:35 AM24.8 °F24.8 °F100 %30.27 in4.0 miCalmOvercast
3:55 AM24.8 °F24.8 °F100 %30.27 in4.0 miCalmOvercast
4:15 AM26.6 °F24.8 °F93 %30.27 in5.0 miCalmOvercast
4:35 AM26.6 °F26.6 °F100 %30.27 in4.0 miCalmOvercast
4:55 AM26.6 °F26.6 °F100 %30.28 in4.0 miCalmOvercast
5:35 AM24.8 °F23.0 °F93 %30.28 in4.0 miCalmScattered Clouds
5:55 AM26.6 °F23.0 °F86 %30.30 in5.0 miCalmScattered Clouds
6:15 AM26.6 °F24.8 °F93 %30.31 in4.0 miCalmMostly Cloudy
6:35 AM24.8 °F23.0 °F93 %30.31 in4.0 miWest (280°)4.6 mphScattered Clouds
6:50 AM26.6 °F23.0 °F86 %30.32 in5.0 miCalmSnowLight Snow
7:50 AM26.6 °F24.8 °F93 %30.33 in4.0 miCalmSnowLight Snow
8:50 AM28.4 °F24.8 °F86 %30.35 in4.0 miCalmSnowLight Snow
9:50 AM28.4 °F26.6 °F93 %30.39 in6.0 miCalmOvercast
11:50 AM33.8 °F28.4 °F81 %30.39 in6.0 miCalmMostly Cloudy
12:59 PM37.4 °F28.4 °F70 %30.39 in6.0 miCalmHaze
1:47 PM37.4 °F26.6 °F65 %30.38 in6.0 miVariable4.6 mphHaze
2:51 PM35.6 °F24.8 °F65 %30.38 in6.0 miVariable4.6 mphHaze
3:49 PM37.4 °F26.6 °F65 %30.38 in10.0 miVariable4.6 mphScattered Clouds
4:51 PM35.6 °F26.6 °F70 %30.39 in10.0 miVariable4.6 mphScattered Clouds
5:50 PM33.8 °F23.0 °F65 %30.38 in15.0 miCalmScattered Clouds
6:52 PM33.8 °F21.2 °F60 %30.39 in15.0 miCalmScattered Clouds
7:47 PM28.4 °F19.4 °F69 %30.41 in15.0 miNW (320°)10.4 mphScattered Clouds
8:50 PM28.4 °F21.2 °F74 %30.41 in15.0 miCalmScattered Clouds
8:55 PM28.4 °F19.4 °F69 %30.41 in10.0 miNW (310°)4.6 mphPartly Cloudy
9:15 PM28.4 °F19.4 °F69 %30.41 in10.0 miWNW (300°)6.9 mphClear
9:35 PM26.6 °F19.4 °F74 %30.41 in10.0 miNNW (330°)5.8 mphClear
9:55 PM26.6 °F21.2 °F80 %30.42 in10.0 miNE (40°)5.8 mphClear
10:15 PM26.6 °F19.4 °F74 %30.42 in10.0 miCalmClear
10:35 PM26.6 °F19.4 °F74 %30.43 in10.0 miCalmClear
10:55 PM26.6 °F19.4 °F74 %30.43 in10.0 miNNW (340°)3.5 mphClear
11:15 PM26.6 °F19.4 °F74 %30.44 in10.0 miNW (310°)4.6 mphClear
11:35 PM24.8 °F19.4 °F80 %30.44 in10.0 miNorth (350°)3.5 mphClear
Hourly data recorded from KPVU, located miles away from Draper, Utah







STORIES FROM OUR PARTNERS